Regional Weather Roundup
Issued by NWS

Home | Current Version | Previous Version | Graphics & Text | Print | Product List | Glossary On
Versions: 1 2 3 4 5 6 7 8 9 10 11 12 13 14 15 16 17 18 19 20 21 22 23 24 25 26 27 28 29 30 31 32 33 34 35 36 37 38 39 40 41 42 43 44 45 46 47 48 49 50
000
ASUS43 KLOT 011709
RWRIL

ILLINOIS REGIONAL WEATHER ROUNDUP
NATIONAL WEATHER SERVICE CHICAGO/ROMEOVILLE IL
1200 PM CDT SAT OCT 01 2016

NOTE: "FAIR" INDICATES FEW OR NO CLOUDS BELOW 12,000 FEET WITH NO
SIGNIFICANT WEATHER AND/OR OBSTRUCTIONS TO VISIBILITY.

* THESE STATIONS ARE NOT UNDER NWS QUALITY CONTROL. THEY ALSO MAY NOT
  REPORT WEATHER SUCH AS PRECIPITATION OR FOG.

ILZ001-002-007-009-015-016-024-011800-
NORTHWEST ILLINOIS

CITY           SKY/WX    TMP DP  RH WIND       PRES   REMARKS
MOLINE         CLOUDY    63  59  87 NW5       30.05S FOG
STERLING*      CLOUDY    66  58  75 CALM      30.05F
SAVANNA*       CLOUDY    67  58  74 NE9       30.04F
$$

ILZ003-004-008-010-011-017-018-011800-
NORTH CENTRAL ILLINOIS

CITY           SKY/WX    TMP DP  RH WIND       PRES   REMARKS
ROCKFORD       CLOUDY    66  58  75 N7        30.05F
FREEPORT*      CLOUDY    64  58  80 NE6       30.06F
ROCHELLE*      CLOUDY    64  58  83 N7        30.04F
DE KALB*       CLOUDY    63  59  87 NE12      30.04S
$$

ILZ005-006-012>014-019>023-011800-
NORTHEAST ILLINOIS

CITY           SKY/WX    TMP DP  RH WIND       PRES   REMARKS
CHICAGO-OHARE  RAIN      60  59  96 N6        30.01F FOG
CHICAGO-MIDWAY LGT RAIN  62  59  90 NW3       30.00F
AURORA         LGT RAIN  60  58  92 CALM      30.03F FOG
LANSING*       CLOUDY    61  61 100 NW7       30.00F
JOLIET*        RAIN      60  59  96 CALM      30.01F
WAUKEGAN       LGT RAIN  61  59  93 N5        30.02F FOG
DUPAGE AIRPORT LGT RAIN  61  59  93 CALM      30.02S FOG
KANKAKEE*      CLOUDY    61  59  92 CALM      30.02S
WHEELING       RAIN      60  59  96 NE3       30.02F FOG
MORRIS*        RAIN      60  58  94 CALM      30.01F
ROMEOVILLE*    HVY RAIN  60  60 100 N3        30.01F
NORTHERLY ISL    N/A     61  58  90 E6          N/A
$$

LMZ740>746-011800-
SOUTHERN LAKE MICHIGAN

STATION/POSITION SKY/WX   TEMP    WIND        PRES    VSBY  WAVE
                          AIR SEA DIR/SP/G                  HT/PER
                          (F)     (DEG/KT/KT) (MB)    (MI)  (FT/S)
SOUTHERN BUOY              60 67   90/ 12/ 14 1016.0F         3/ 4
WILMETTE HARBOR            61 60  100/  4/  6   N/A           4/ 5
HARRISON CRIB              63      80/ 11/ 12   N/A
BURNHAM HARBOR             61      60/  6/ 10   N/A
CALUMET HARBOR             62      50/  6/  9 1015.6F
BURNS HARBOR               63      60/ 11/ 12 1016.3S
MICHIGAN CITY              60      30/  8/  9   N/A
MICHIGAN CITY 6N           61 64   50/  8/ 10   N/A           4/ 6
ST. JOSEPH                 54 51   20/  6/  6 1016.1          2/ 5
$$

ILZ025>027-034>036-040-047-049-050-058-095>099-011800-
WEST-CENTRAL ILLINOIS

CITY           SKY/WX    TMP DP  RH WIND       PRES   REMARKS
QUINCY         CLOUDY    65  58  78 NW10      30.06S
GALESBURG*     DRIZZLE   61  60  96 CALM      30.04F
MACOMB*        CLOUDY    63  61  94 NW10      30.07F
JACKSONVILLE*  CLOUDY    64  61  91 NW7       30.05S
PITTSFIELD*    CLOUDY    65  60  81 NW7       30.07S
$$

ILZ028>032-037-038-041>044-048-051>054-059>061-011800-
CENTRAL ILLINOIS

CITY           SKY/WX    TMP DP  RH WIND       PRES   REMARKS
PONTIAC        CLOUDY    64  60  87 NW3       30.03F
BLOOMINGTON    PTSUNNY   64  55  72 VRB6      30.04F
DECATUR        CLOUDY    67  56  67 N6        30.03S
PEORIA         LGT RAIN  63  61  93 N3        30.03F
LACON*         PTSUNNY   66  55  65 CALM      30.03S
LINCOLN*       CLOUDY    66  60  80 CALM      30.03F
SPRINGFIELD    CLOUDY    65  61  87 NW5       30.04S
TAYLORVILLE    CLOUDY    64  59  82 NW5       30.03F
$$

ILZ033-039-045-046-055>057-062-063-011800-
EAST-CENTRAL ILLINOIS

CITY           SKY/WX    TMP DP  RH WIND       PRES   REMARKS
CHAMPAIGN      PTSUNNY   65  59  81 N6        30.03F
RANTOUL*       CLOUDY    64  60  86 NW8       30.02F
MATTOON        CLOUDY    67  57  70 N9        30.01S
PARIS*         CLOUDY    63  59  88 CALM      30.03F
$$

ILZ079-100>102-011800-
SOUTHWEST ILLINOIS

CITY           SKY/WX    TMP DP  RH WIND       PRES   REMARKS
ALTON          CLOUDY    63  61  94 W7        30.06S
BELLEVILLE     DRIZZLE   64  64  97 NW7       30.04S
CAHOKIA*       CLOUDY    67  58  72 W9        30.06S
SPARTA*        CLOUDY    64  61  90 W8        30.06F
$$

ILZ064>066-069>071-074>076-080>082-084>086-088>090-092>094-011800-
SOUTH-CENTRAL ILLINOIS

CITY           SKY/WX    TMP DP  RH WIND       PRES   REMARKS
CARBONDALE     CLOUDY    65  62  90 W8        30.06S
CAIRO*         CLOUDY    67  59  75 W6        30.06F
EFFINGHAM*     PTSUNNY   67  61  79 NW6       30.03F
MARION         CLOUDY    68  64  88 W9        30.06S
MT. VERNON     CLOUDY    68  59  73 NW3       30.04F
CENTRALIA*     CLOUDY    67  63  86 NW6       30.03S
SALEM*         CLOUDY    68  60  75 NW8       30.03S
METROPOLIS*    CLOUDY    66  60  81 W7        30.07S
$$

ILZ067-068-072-073-078-083-087-091-011800-
SOUTHEAST ILLINOIS

CITY           SKY/WX    TMP DP  RH WIND       PRES   REMARKS
LAWRENCEVILLE  CLOUDY    63  58  83 W5        30.03F
FLORA*         MOSUNNY   69  60  71 N6        30.02F
FAIRFIELD*     PTSUNNY   69  61  75 W3        30.01F
HARRISBURG*    CLOUDY    67  62  83 W6        30.04F
ROBINSON*      LGT RAIN  61  59  92 CALM      30.04S
CARMI*         PTSUNNY   69  61  77 NW3       30.02S
$$

ABBREVIATIONS USED IN REMARKS
   TC - TEMPERATURE IN CELSIUS
  WCI - WIND CHILL INDEX
   HX - HEAT INDEX
  VSB - VISIBILITY
$$





USA.gov is the U.S. government's official web portal to all federal, state and local government web resources and services.